EW9275 Weather Reports


time (UTC)temp
C
wind
direction
speed
KPH
gust
KPH
rain 1hr
cm
rain 24hr
cm
rain mn
cm
humidity
%
barometer
mb
20260505090036 11 0.0 0.0 0.00 0.00 0.00 88 1014.2
20260505083016 11 0.0 0.0 0.00 0.00 0.00 87 1014.2
20260505080016 12 0.0 0.0 0.00 0.00 0.00 85 1014.1
20260505073016 12 0.0 0.0 0.00 0.00 0.00 83 1013.8
20260505070016 13 0.0 1.6 0.00 0.00 0.00 83 1013.4
20260505063018 13 0.0 1.6 0.00 0.00 0.00 80 1013.1
20260505060036 15 0.0 1.6 0.00 0.00 0.00 79 1012.8
20260505053035 15 0.0 0.0 0.00 0.00 0.00 76 1012.5
20260505040016 18 0.0 1.6 0.00 0.00 0.00 65 1011.5
20260505033015 20 0.0 4.8 0.00 0.00 0.00 61 1011.0
20260505030015 22 0.0 1.6 0.00 0.00 0.00 58 1010.5
20260505023015 23 0.0 3.2 0.00 0.00 0.00 54 1010.3
20260505020018 23 0.0 3.2 0.00 0.00 0.00 52 1010.3
20260505013017 25 0.0 4.8 0.00 0.00 0.00 47 1010.2
20260505010017 25 270 1.6 6.4 0.00 0.00 0.00 44 1010.4
20260505003017 25 0.0 4.8 0.00 0.00 0.00 43 1010.2
20260505000017 26 0.0 4.8 0.00 0.00 0.00 42 1010.4
20260504233037 26 0.0 3.2 0.00 0.00 0.00 43 1010.4
20260504230017 26 270 1.6 4.8 0.00 0.00 0.00 42 1010.6
20260504223038 26 270 1.6 4.8 0.00 0.00 0.00 41 1010.9
20260504220017 25 270 1.6 6.4 0.00 0.00 0.00 40 1011.1
20260504213018 25 315 1.6 6.4 0.00 0.00 0.00 40 1011.3
20260504210017 25 270 1.6 6.4 0.00 0.00 0.00 43 1011.4
20260504203037 25 270 1.6 6.4 0.00 0.00 0.00 43 1011.5
20260504200057 25 0.0 3.2 0.00 0.00 0.00 43 1011.8
20260504193017 23 270 1.6 4.8 0.00 0.00 0.00 48 1011.9
20260504190017 22 0.0 6.4 0.00 0.00 0.00 48 1012.1
20260504183018 22 0.0 4.8 0.00 0.00 0.00 52 1012.4
20260504180016 21 0.0 4.8 0.00 0.00 0.00 54 1012.4
20260504173017 20 0.0 4.8 0.00 0.00 0.00 60 1012.4